Regional Weather Roundup
Issued by NWS Sioux Falls, SD

Home | Current Version | Previous Version | Graphics & Text | Print | Product List | Glossary Off
Versions: 1 2 3 4 5 6 7 8 9 10 11 12 13 14 15 16 17 18 19 20 21 22 23 24 25 26 27 28 29 30 31 32 33 34 35 36 37 38 39 40 41 42 43 44 45 46 47 48 49 50

000
ASUS43 KFSD 030502
RWRFSD

WEATHER ROUNDUP FOR SE SOUTH DAKOTA/SW MINNESOTA/NW IOWA
NATIONAL WEATHER SERVICE SIOUX FALLS SD
1100 PM CST MON MAR 02 2015

NOTE: "FAIR" INDICATES FEW OR NO CLOUDS BELOW 12,000 FEET WITH NO
SIGNIFICANT WEATHER AND OR OBSTRUCTIONS TO VISIBILITY.


SDZ038>040-050-052>070-030600-
SOUTHEAST SOUTH DAKOTA

CITY           SKY/WX    TMP DP  RH WIND       PRES   REMARKS
CHAMBERLAIN    NOT AVBL
HURON          CLOUDY    31  21  66 S16       29.80F WCI  20
MADISON        MOCLDY    27  25  93 S17G24    29.85F WCI  14
MITCHELL       FAIR      31  21  66 MISG      29.83F
SIOUX FALLS    CLOUDY    28  19  69 SE23      29.88F WCI  14
WINNER         FAIR      34  16  47 S14       29.73F WCI  25
YANKTON        FAIR      32  19  59 SE12      29.88F WCI  23
$$

MNZ071-072-080-081-089-090-097-098-030600-
SOUTHWEST MINNESOTA

CITY           SKY/WX    TMP DP  RH WIND       PRES   REMARKS
FAIRMONT       CLOUDY    23  16  74 SE15      30.00F WCI  10
JACKSON        CLOUDY    25  21  86 SE9G16    29.98F WCI  15
LUVERNE        FAIR      28  21  74 S13       29.92F WCI  18
MARSHALL       CLOUDY    25  18  74 S15       29.95F WCI  12
MONTEVIDEO     LGT SNOW  25  21  86 S13G23    29.95F WCI  13
PIPESTONE      CLOUDY    27  19  74 S20       29.89F WCI  13
REDWOOD FALLS  CLOUDY    24  18  77 SE17      29.99F WCI  11
TRACY          CLOUDY    26  21  79 S10       29.95F WCI  17
WINDOM         CLOUDY    23  19  86 SE14      29.96F WCI  11
WORTHINGTON    CLOUDY    25  18  74 S15       29.96F WCI  12
$$

IAZ001>003-012>014-020>022-031-032-NEZ013-014-SDZ071-030600-
NORTHWEST IOWA

CITY           SKY/WX    TMP DP  RH WIND       PRES   REMARKS
DENISON        FAIR      28  21  74 SE10G20   29.94F WCI  19
ESTHERVILLE    CLOUDY    23  19  85 SE17      29.98F WCI   9
LE MARS        FAIR      30  21  69 SE15G23   29.92F WCI  19
SIOUX CITY     FAIR      32  20  61 SE12      29.92F WCI  23
SPENCER        CLOUDY    27  19  72 SE16      29.97F WCI  15
$$

ABBREVIATIONS USED IN REMARKS
   TC - TEMPERATURE IN CELSIUS
  WCI - WIND CHILL INDEX
   HX - HEAT INDEX
  VSB - VISIBILITY




USA.gov is the U.S. government's official web portal to all federal, state and local government web resources and services.